Flag for Switzerland Weather past 2 weeks in Montreux, Vaud, Switzerland

Now
62 °F

Sprinkles. Low clouds.


Feels Like: 62 °F
Forecast: 54 / 70 °F
Wind: 3 mph from North

Location: Aigle

Current Time: Jul 30, 2014 at 3:13:05 PM

Latest Report: Jul 30, 2014 at 2:00 PM


Visibility: 3 mi

Pressure: 29.91 "Hg

Humidity: 95%

Dew point: 60 °F

Location of MontreuxLocation

Historic Weather in Montreux — Graph

°F

Montreux temperature yesterday

Maximum temperature yesterday: 67 °F (at 3:00 PM)
Minimum temperature yesterday: 56 °F (at 8:00 AM)
Average temperature yesterday: 62 °F

Past Weeks' High & Low Weather Summary

 TemperatureHumidityPressure
High85 °F (Jul 18, 6:00 PM)99% (Jul 22, 1:00 AM)30.19 "Hg (Jul 22, 1:00 AM)
Low55 °F (Jul 16, 4:00 AM)42% (Jul 19, 4:00 PM)29.79 "Hg (Jul 29, 3:00 PM)
Average66 °F82%29.96 "Hg
* Reported Jul 15 2:00 PM — Jul 30 2:00 PM, Montreux, Weather by CustomWeather, © 2014

Note: Actual official high and low records may vary slightly from our data, if they occured in-between our weather recording intervals... More about our weather records

Advertising

Montreux weather history for previous 24 hours

 ConditionsComfort  
Time TempWeatherWind HumidityBarometerVisibility
2:00 PM
Jul 30
62 °FSprinkles. Low clouds.3 mph95%29.91 "Hg3 mi
1:00 PM62 °FCool.5 mph95%29.91 "HgN/A
12:00 PM61 °FCool.5 mph95%29.89 "HgN/A
11:00 AM62 °FRain. Overcast.1 mph93%29.88 "Hg4 mi
10:00 AM61 °FCool.1 mph93%29.88 "HgN/A
9:00 AM61 °FCool.No wind94%29.87 "HgN/A
8:00 AM61 °FOvercast.1 mph96%29.86 "Hg10 mi
7:00 AM60 °FCool.1 mph98%29.86 "HgN/A
6:00 AM60 °FCool.3 mph97%29.86 "HgN/A
5:00 AM60 °FFog.1 mph98%29.85 "Hg4 mi
4:00 AM60 °FCool.2 mph97%29.85 "HgN/A
3:00 AM61 °FCool.No wind98%29.87 "HgN/A
2:00 AM61 °FCool.1 mph97%29.87 "HgN/A
1:00 AM60 °FCool.2 mph97%29.87 "HgN/A
12:00 AM60 °FCool.2 mph96%29.87 "HgN/A
11:00 PM
Jul 29
61 °FCool.3 mph96%29.88 "HgN/A
10:00 PM60 °FCool.7 mph89%29.86 "HgN/A
9:00 PM63 °FMild.3 mph83%29.85 "HgN/A
8:00 PM64 °FPartly sunny.3 mph83%29.83 "Hg19 mi
7:00 PM65 °FMild.5 mph80%29.82 "HgN/A
6:00 PM65 °FMild.3 mph76%29.80 "HgN/A
5:00 PM65 °FDrizzle. Overcast.1 mph67%29.81 "Hg16 mi
4:00 PM66 °FMild.3 mph74%29.80 "HgN/A
3:00 PM67 °FMild.3 mph64%29.79 "HgN/A
Weather by CustomWeather, © 2014

See weather overviewHow to use our weather pages